sat.trackr.live / text

‹ back to catalog

GALAXY 3C (G-3C)

NORAD 27445 · 2002-030A

PAYLOAD ACTIVE UNKNOWN

§ Identity

Operator
Country
US
Launch date
2002-06-15
Launch site
SEAL
Launch vehicle
Mass (kg)
RCS (m²)
33.50

Purposes: comms

External: N2YO · Heavens-Above · Gunter

§ Orbital elements

Epoch: 2026-05-25T04:22:16.489056Z

Period
1,436.10 min
Inclination
3.6731°
Eccentricity
0.0001768
Mean motion
1.00271393 rev/d
Perigee alt
35,779.3 km
Apogee alt
35,794.2 km
Semi-major
42,164.8 km
B*
0.0000e+0
RAAN
78.2828°
Arg perigee
27.5445°
Mean anomaly
107.6539°
Rev number
4,626

§ Raw data

GALAXY 3C (G-3C)1 27445U 02030A   26145.18213529 -.00000154  00000+0  00000+0 0  99952 27445   3.6731  78.2828 0001768  27.5445 107.6539  1.00271393 46263

JSON: /api/v1/satellites/27445 · /tle

For live sub-satellite position, see the globe view (requires WebGL).

§ Visibility from observer

Set your observer location to see the next 7 days of passes ≥ 10°. The values pass through the URL so the page stays shareable.

No JS? Fill the form by hand. The geolocation button needs JavaScript.